Regional Weather Roundup
Issued by NWS Upton, NY

Current Version | Previous Version | Graphics & Text | Print | Product List | Glossary Off
Versions: 1 2 3 4 5 6 7 8 9 10 11 12 13 14 15 16 17 18 19 20 21 22 23 24 25 26 27 28 29 30 31 32 33 34 35 36 37 38 39 40 41 42 43 44 45 46 47 48 49 50
000 ASUS41 KOKX 271208 RWROKX REGIONAL WEATHER ROUNDUP NATIONAL WEATHER SERVICE NEW YORK NY 800 AM EDT FRI MAR 27 2015 NOTE: "FAIR" INDICATES FEW OR NO CLOUDS BELOW 12,000 FEET WITH NO SIGNIFICANT WEATHER AND/OR OBSTRUCTIONS TO VISIBILITY. NYZ071-072-176-178-NJZ106-104-271300- NEW YORK CITY METRO AREA CITY SKY/WX TMP DP RH WIND PRES REMARKS CENTRAL PARK CLOUDY 39 36 89 VRB3 29.77F LAGUARDIA APRT LGT RAIN 40 35 83 N7 29.75F KENNEDY INTL LGT RAIN 41 36 82 N12 29.77S NEWARK/LIBERTY LGT RAIN 40 36 86 N7 29.76F BRNX BOT. GARD N/A 37 36 93 NW2 29.77R TETERBORO LGT RAIN 39 36 89 NW5 29.75F $$ NYZ177-179-078>081-271300- LONG ISLAND NEW YORK CITY SKY/WX TMP DP RH WIND PRES REMARKS FARMINGDALE CLOUDY 39 36 89 N10 29.75F WCI 32 ISLIP CLOUDY 39 36 89 N15 29.71F WCI 31 SHIRLEY LGT RAIN 40 37 89 N12 29.74R WCI 33 WESTHAMPTON LGT RAIN 40 37 89 N12 29.73S WCI 33 MONTAUK POINT N/A 40 38 93 NW8 29.73R WCI 34 $$ NYZ052-065-067-271300- HUDSON VALLEY CITY SKY/WX TMP DP RH WIND PRES REMARKS WHITE PLAINS CLOUDY 37 35 92 N8 29.73F WCI 31 NEWBURGH CLOUDY 37 36 93 NW6 29.81R FOG WCI 33 MONTGOMERY CLOUDY 37 36 96 CALM 29.74S POUGHKEEPSIE CLOUDY 37 34 89 CALM 29.77R ALBANY CLOUDY 37 31 78 NW9 29.76F WCI 30 $$ NJZ001-105-106-008-010-013-015-019>022-104-271300- NEW JERSEY CITY SKY/WX TMP DP RH WIND PRES REMARKS NEWARK/LIBERTY LGT RAIN 40 36 86 N7 29.76F TETERBORO LGT RAIN 39 36 89 NW5 29.75F CALDWELL CLOUDY 38 33 82 CALM 29.76F MORRISTOWN CLOUDY 37 36 93 N3 29.77F SOMERVILLE NOT AVBL SUSSEX CLOUDY 38 33 82 N6 29.75F WCI 33 ANDOVER N/A 34 33 96 CALM 29.75S TRENTON CLOUDY 37 34 89 N6 29.76F WCI 32 MILLVILLE LGT RAIN 40 38 93 N10 29.76F WCI 33 ATLANTIC CITY CLOUDY 40 37 89 N14 29.75S WCI 32 WRIGHTSTOWN LGT RAIN 37 37 99 NE5 29.74F WCI 34 TOMS RIVER CLOUDY 37 36 93 NW9 29.77S WCI 31 BELMAR CLOUDY 37 32 81 NW12 29.74F WCI 30 $$ PAZ047>061-062-071-271300- EASTERN PENNSYLVANIA CITY SKY/WX TMP DP RH WIND PRES REMARKS PHILADELPHIA CLOUDY 39 35 86 N8 29.79F WCI 33 ALLENTOWN CLOUDY 39 33 79 CALM 29.77F SCRANTON CLOUDY 37 30 75 NW7 29.77F WCI 32 $$ CTZ002-004>006-009-010-012-RIZ004-006-007-MAZ004-011-015-271300- SOUTHERN NEW ENGLAND IN CT CITY SKY/WX TMP DP RH WIND PRES REMARKS BRADLEY INTL LGT RAIN 39 35 86 N3 29.74R HARTFORD LGT RAIN 39 37 92 VRB6 29.76R WCI 35 DANBURY CLOUDY 36 32 85 CALM 29.75F WTRBRY/OXFORD LGT RAIN 36 28 75 N9 29.75R WCI 29 BRIDGEPORT LGT RAIN 40 36 86 N8 29.74S WCI 34 MERIDEN LGT RAIN 39 34 82 N8 29.75S WCI 33 NEW HAVEN LGT RAIN 40 36 86 N7 29.74R CHESTER RAIN 39 37 93 N8 29.73R WCI 34 GROTON LGT RAIN 41 39 93 N15 29.73R WILLIMANTIC LGT RAIN 38 36 92 NW3 29.75R IN RI CITY SKY/WX TMP DP RH WIND PRES REMARKS PROVIDENCE LGT RAIN 41 38 89 N10 29.72S BLOCK ISLAND CLOUDY 41 37 87 N9 29.71R WESTERLY LGT RAIN 42 40 92 N8 29.71F FOG IN MA CITY SKY/WX TMP DP RH WIND PRES REMARKS BOSTON LGT RAIN 40 38 93 NW9 29.74R WCI 34 WORCESTER LGT RAIN 36 33 89 N6 29.72R WCI 31 WESTFIELD LGT RAIN 37 34 89 NE3 29.73S PROVINCETOWN CLOUDY 39 36 87 N12 29.73R WCI 32 NANTUCKET CLOUDY 39 38 96 N14 29.66R FOG WCI 31 $$ ANZ330-335-338-340-345-350-353-355-271300- COASTAL MARINE OBSERVATIONS STATION/POSITION TIME SKY/WX TEMP WIND PRES VSBY WAVE AIR SEA DIR/SP/G HT/PER (UTC) (F) (DEG/KT/KT) (MB) (MI) (FT/S) NY HARB ENTRANCE 1150 40 38 330/ 12/ 14 1007.3 6/10 4S FIRE IS 1103 36 N/A 7/ 9 20S FIRE ISLAND 1050 38 1007.2 7/ 9 23SW MTP 1150 N/A 9/12 HUDSON CANYON NOT AVBL EXECUTION ROCKS NOT AVBL WESTERN LI SOUND NOT AVBL CENTRAL LI SOUND NOT AVBL EASTERN LI SOUND NOT AVBL ROBBINS REEF 1100 39 340/ 9/ 12 1006.7 $$ >>>>>>>>>>>>>>>>>>>>>>>>>>>> KEY <<<<<<<<<<<<<<<<<<<<<<<<<<< > < > SKY/WX - SKY CONDITION/PRESENT WEATHER < > TMP - TEMPERATURE IN FAHRENHEIT < > DP - DEWPOINT IN FAHRENHEIT < > RH - RELATIVE HUMIDITY IN PERCENT < > WIND - DIRECTION AND SPEED IN MPH < > PRES - MEAN SEA LEVEL PRESSURE IN INCHES OF HG < > WCI - WIND CHILL INDEX < > VSB - VISIBILITY IN MILES < > HX - HEAT INDEX < > TC - TEMPERATURE IN CELSIUS < > VRB - VARIABLE WIND DIRECTION < > < >>>>>>>>>>>>>>>>>>>>>>>>>>>> KEY <<<<<<<<<<<<<<<<<<<<<<<<<<<

USA.gov is the U.S. government's official web portal to all federal, state and local government web resources and services.